Weather in Ilim

Russia / Zabaykalsky Krai     52°12′43″N   116°02′19″E
temp.,
°C
wind,
m/s
gust,
m/s
humid.,
%
clouds,
%
prec.,
mm/h
press.,
hPa
HPBL,
m
20 september, mon
mon2000:00+7s118769 0.0 101711
03:00+6sse11905 0.0 101611
06:00+5s1191100 0.0 101511
09:00+8s1282100 0.0 1014169
12:00+14ssw3566100 0.0 1012636
15:00+16ssw45615 0.0 1010816
18:00+14s366750 0.0 1010261
21:00+9s117667 0.0 101110
21 september, tue
tue2100:00+8ene0074100 0.0 101010
03:00+8ene1177100 0.0 101010
06:00+8ne118090 0.1 101010
09:00+9ne117595 0.1 1010137
12:00+13ese226470 0.0 1008471
15:00+17sse346069 0.0 1006954
18:00+16ese116945 0.0 100525
21:00+12ene11789 0.0 100710
22 september, wed
wed2200:00+10se118299 0.0 100710
03:00+9sse228467 0.0 100713
06:00+9ssw2283100 0.2 100942
09:00+9ssw249155 3.5 1011250
12:00+13sw446663 0.0 10121142
15:00+14ssw445641 0.1 10121361
18:00+13s4668100 0.0 1013244
21:00+9s1178100 0.0 101510
23 september, thu
thu2300:00+8ne0084100 0.0 101610
03:00+8nnw2285100 0.0 101616
06:00+8se2397100 3.0 1016133
09:00+8ese2798100 4.4 1016390
12:00+10s3685100 0.1 1015652
15:00+10ssw468890 0.1 1016472
18:00+9w488245 0.3 1017359
21:00+5wsw349130 0.3 102069
24 september, fri
fri2400:00+4w229242 0.0 102117
03:00+5w229078 0.0 102231
06:00+4wnw2291100 0.0 102328
09:00+6wnw118342 0.0 1023159
12:00+10sse1170100 0.0 1022779
15:00+11sse1163100 0.0 1020949
18:00+10se227399 0.0 102026
21:00+7ssw1183100 0.0 102110